Miscellaneous Local Product
Issued by NWS Hastings, NE

Home | Current Version | Previous Version | Graphics & Text | Print | Product List | Glossary Off
Versions: 1 2 3 4 5 6 7 8 9 10 11 12 13 14 15 16 17 18 19 20 21 22 23 24 25 26 27 28 29 30 31 32 33 34 35 36 37 38 39 40 41 42 43 44 45 46 47 48 49 50

458
AXUS43 KGID 180602
MISGRI

GID CWA HOURLY WEATHER ROUNDUP
NATIONAL WEATHER SERVICE HASTINGS NE
100 AM CDT FRI AUG 18 2017

NOTE: "FAIR" INDICATES FEW OR NO CLOUDS BELOW 12,000 FEET WITH NO
SIGNIFICANT WEATHER AND/OR OBSTRUCTIONS TO VISIBILITY.

...SOUTH CENTRAL NEBRASKA...

CITY           SKY/WX    TMP DP  RH WIND       PRES   REMARKS
GRAND ISLAND   CLOUDY    70  61  73 S8        29.95R
HASTINGS       CLOUDY    71  57  61 S7        29.97R
KEARNEY        CLOUDY    68  59  73 S8        29.94S
ORD            LGT RAIN  64  58  80 NE10      29.97F
YORK           CLOUDY    66  63  88 S7        29.95R
AURORA         CLOUDY    69  61  74 S8        29.95R
LEXINGTON      CLOUDY    68  58  71 W3        29.97R
HOLDREGE       CLOUDY    66  58  75 SE5       29.94S
HEBRON         MOCLDY    70  61  72 S8        29.95R

...NEBRASKA PANHANDLE...

CITY           SKY/WX    TMP DP  RH WIND       PRES   REMARKS
CHADRON        CLEAR     55  51  86 SW8       30.03R
ALLIANCE       CLEAR     53  49  86 MISG      30.06R
SCOTTSBLUFF    CLEAR     59  50  72 NW7       30.09R
SIDNEY         CLEAR     56  49  77 W8        30.10R

...WESTERN AND NORTH CENTRAL NEBRASKA...

CITY           SKY/WX    TMP DP  RH WIND       PRES   REMARKS
VALENTINE      CLOUDY    63  56  78 SW5       29.95S
AINSWORTH      CLOUDY    60  59  96 SW9       29.97R
ONEILL         RAIN      63  63 100 E6        29.99F
BROKEN BOW     CLOUDY    67  56  67 NE5       29.98F
IMPERIAL       CLEAR     64  54  69 S8        30.01R
NORTH PLATTE   CLOUDY    66  55  67 E9        30.01R
MCCOOK         CLEAR     65  58  78 SW13      29.98R

...EASTERN NEBRASKA...

CITY           SKY/WX    TMP DP  RH WIND       PRES   REMARKS
NORFOLK        CLOUDY    67  63  87 W16       29.97R
SO SIOUX CITY  CLEAR     61  61 100 SE5       29.91S
TEKAMAH        CLEAR     62  60  93 S3        29.92R
COLUMBUS       CLEAR     63  61  93 SE3       29.93S
ALBION         RAIN      65  61  86 NW23G31   30.03R
OMAHA EPPLEY   CLEAR     65  61  87 CALM      29.94R
OFFUTT AFB     CLEAR     60  59  96 CALM      29.94R
MILLARD        CLEAR     66  65  94 CALM      29.95R
LINCOLN        CLEAR     67  62  84 CALM      29.95R
NEBRASKA CITY  CLEAR     65  62  93 SW5       29.96R
BEATRICE       CLOUDY    67  60  79 S7        29.96R
FALLS CITY     CLOUDY    64  60  87 CALM      29.95R

...NORTHERN KANSAS...

CITY           SKY/WX    TMP DP  RH WIND       PRES   REMARKS
GOODLAND       CLEAR     66  61  84 S17       30.07R
HILL CITY      CLOUDY    66  60  81 SW12      29.98F
NORTON         CLEAR     64  55  72 SW12      29.96S
PHILLIPSBURG   CLEAR     72  57  60 SW16G24   29.93R
SMITH CENTER   CLEAR     73  54  49 S17G25    29.90F
HAYS           LGT RAIN  64  61  90 NW7       30.09F
RUSSELL        LGT RAIN  71  63  75 W22G33    30.05R
CONCORDIA      CLOUDY    72  59  63 S13       29.96R
SALINA         CLOUDY    73  61  65 S8        29.98R
TOPEKA         CLOUDY    65  63  93 CALM      29.96R



USA.gov is the U.S. government's official web portal to all federal, state and local government web resources and services.